カタログに戻る

FREGAT DEB

LostUNKNOWN
NORAD 46258·DEBRIS·🇷🇺 Russia

打ち上げ Jul 18, 2011 から Baikonur Cosmodrome

Loading…

次のパス (今後24時間)

TLE

古いSource: Space-Track

元期: Aug 21, 2021, 13:35 UTC

1 46258U 11037KU  21233.56628784 -.00015210  00000-0 -12836-1 0  9996
2 46258  51.6604 305.3187 2413977 263.9791  68.3334  9.92853432 35815

AllMySatでFREGAT DEBをリアルタイム追跡

Download on the App Store